Date String (YYYY-MM-DD hh:mm:ss) UTC,Instrument flags,Ambient pressure (hPa),Sample flow (lpm),Bypass flow (lpm),Sample temperature (°C),Ambient temperature (°C),ASC tube jacket temperature (°C),LED temperature (°C),Box temperature (°C),Sample RH (%),Span deviation,Mass concentration (μg/m³),Mass concentration (μg/m³),Mass concentration (μg/m³)
DateTimeUTC,F1_M11,P_M11,Q1_M11,Q2_M11,T1_M11,T2_M11,T3_M11,T4_M11,T5_M11,U1_M11,ZSPAN_M11,X0_M11,X2_M11,X1_M11
2022-08-20 11:00:00,,0829.9,5.00,0.00,30.4,29.3,00.0,39.1,32.2,26.2,0000.0,0012.50,0006.62,0005.64
2022-08-20 11:01:00,,0829.8,4.99,0.00,30.4,29.3,00.0,39.1,32.3,26.2,0000.0,0012.65,0006.65,0005.64
2022-08-20 11:02:00,,0829.9,5.00,0.00,30.4,29.3,00.0,39.2,32.3,26.2,0000.0,0012.91,0006.64,0005.63
2022-08-20 11:03:00,,0829.9,5.00,0.00,30.4,29.4,00.0,39.2,32.3,26.2,0000.0,0013.01,0006.60,0005.63
2022-08-20 11:04:00,,0830.1,5.00,0.00,30.4,29.4,00.0,39.2,32.3,26.2,0000.0,0012.73,0006.60,0005.64
2022-08-20 11:05:00,,0830.0,5.00,0.00,30.4,29.4,00.0,39.2,32.3,26.1,0000.0,0013.79,0006.61,0005.64
2022-08-20 11:06:00,,0829.9,4.99,0.00,30.4,29.4,00.0,39.2,32.3,26.1,0000.0,0014.37,0006.65,0005.65
2022-08-20 11:07:00,,0829.9,5.00,0.00,30.5,29.4,00.0,39.2,32.3,26.2,0000.0,0014.34,0006.67,0005.66
2022-08-20 11:08:00,,0829.9,5.01,0.00,30.5,29.4,00.0,39.2,32.3,26.2,0000.0,0015.16,0006.70,0005.67
2022-08-20 11:09:00,,0829.9,5.00,0.00,30.5,29.4,00.0,39.2,32.4,26.2,0000.0,0014.70,0006.74,0005.69
2022-08-20 11:10:00,,0829.9,5.01,0.00,30.5,29.4,00.0,39.2,32.4,26.1,0000.0,0014.66,0006.72,0005.70
2022-08-20 11:11:00,,0829.9,5.00,0.00,30.5,29.5,00.0,39.2,32.4,25.7,0000.0,0015.20,0006.70,0005.70
2022-08-20 11:12:00,,0829.9,5.00,0.00,30.5,29.5,00.0,39.3,32.4,26.1,0000.0,0015.78,0006.68,0005.71
2022-08-20 11:13:00,,0829.9,5.00,0.00,30.5,29.5,00.0,39.3,32.4,26.1,0000.0,0015.57,0006.66,0005.72
2022-08-20 11:14:00,,0829.9,5.01,0.00,30.5,29.5,00.0,39.3,32.4,26.2,0000.0,0015.46,0006.68,0005.72
2022-08-20 11:15:00,,0829.9,5.01,0.00,30.5,29.5,00.0,39.3,32.4,26.0,0000.0,0015.16,0006.68,0005.71
2022-08-20 11:16:00,,0829.9,5.00,0.00,30.6,29.5,00.0,39.3,32.4,25.5,0000.0,0014.66,0006.65,0005.69
2022-08-20 11:17:00,,0829.9,4.99,0.00,30.6,29.5,00.0,39.3,32.4,25.4,0000.0,0014.55,0006.63,0005.68
2022-08-20 11:18:00,,0829.9,5.01,0.00,30.6,29.5,00.0,39.3,32.5,25.4,0000.0,0014.56,0006.60,0005.66
2022-08-20 11:19:00,,0829.9,5.00,0.00,30.6,29.5,00.0,39.3,32.5,25.8,0000.0,0013.52,0006.55,0005.65
2022-08-20 11:20:00,,0829.9,5.00,0.00,30.6,29.5,00.0,39.3,32.5,25.7,0000.0,0013.26,0006.53,0005.63
2022-08-20 11:21:00,,0829.9,5.00,0.00,30.6,29.5,00.0,39.3,32.4,25.7,0000.0,0013.45,0006.51,0005.61
2022-08-20 11:22:00,,0829.9,5.01,0.00,30.6,29.5,00.0,39.3,32.4,25.5,0000.0,0013.09,0006.51,0005.59
2022-08-20 11:23:00,,0829.9,5.00,0.00,30.6,29.5,00.0,39.4,32.5,25.3,0000.0,0012.32,0006.48,0005.57
2022-08-20 11:24:00,,0829.9,5.00,0.00,30.6,29.6,00.0,39.4,32.5,25.4,0000.0,0012.16,0006.48,0005.55
2022-08-20 11:25:00,,0829.9,5.00,0.00,30.6,29.6,00.0,39.4,32.5,25.0,0000.0,0012.10,0006.46,0005.54
2022-08-20 11:26:00,,0829.9,5.00,0.00,30.6,29.6,00.0,39.4,32.5,25.2,0000.0,0012.02,0006.42,0005.53
2022-08-20 11:27:00,,0829.9,4.99,0.00,30.6,29.6,00.0,39.4,32.5,24.8,0000.0,0011.81,0006.41,0005.53
2022-08-20 11:28:00,,0829.8,5.00,0.00,30.7,29.6,00.0,39.4,32.5,24.5,0000.0,0011.52,0006.39,0005.52
2022-08-20 11:29:00,,0829.9,4.99,0.00,30.7,29.6,00.0,39.4,32.5,24.1,0000.0,0011.75,0006.36,0005.51
2022-08-20 11:30:00,,0829.9,5.00,0.00,30.7,29.6,00.0,39.4,32.5,24.4,0000.0,0012.63,0006.35,0005.48
2022-08-20 11:31:00,,0829.9,5.00,0.00,30.7,29.6,00.0,39.5,32.5,24.7,0000.0,0012.57,0006.30,0005.45
2022-08-20 11:32:00,,0829.9,5.00,0.00,30.7,29.5,00.0,39.5,32.5,24.7,0000.0,0012.36,0006.27,0005.43
2022-08-20 11:33:00,,0830.0,5.00,0.00,30.6,28.7,00.0,39.4,32.2,24.8,0000.0,0012.16,0006.26,0005.43
2022-08-20 11:34:00,,0830.0,4.99,0.00,30.5,28.2,00.0,39.3,32.1,25.0,0000.0,0012.42,0006.29,0005.43
2022-08-20 11:35:00,,0830.0,5.00,0.00,30.4,28.0,00.0,39.3,31.9,25.2,0000.0,0012.65,0006.32,0005.41
2022-08-20 11:36:00,,0830.0,5.01,0.00,30.3,28.0,00.0,39.3,31.9,25.7,0000.0,0012.68,0006.32,0005.41
2022-08-20 11:37:00,,0830.1,5.00,0.00,30.3,28.1,00.0,39.2,31.9,26.1,0000.0,0012.77,0006.34,0005.41
2022-08-20 11:38:00,,0830.1,5.01,0.00,30.3,28.2,00.0,39.2,32.0,26.5,0000.0,0012.49,0006.36,0005.40
2022-08-20 11:39:00,,0830.1,4.99,0.00,30.2,28.3,00.0,39.2,32.0,26.8,0000.0,0012.28,0006.35,0005.41
2022-08-20 11:40:00,,0830.1,5.01,0.00,30.2,28.4,00.0,39.2,32.0,26.8,0000.0,0012.41,0006.39,0005.44
2022-08-20 11:41:00,,0830.1,5.00,0.00,30.2,28.5,00.0,39.1,32.0,26.8,0000.0,0011.90,0006.42,0005.47
2022-08-20 11:42:00,,0830.1,5.00,0.00,30.2,28.6,00.0,39.1,32.0,26.9,0000.0,0011.81,0006.47,0005.50
2022-08-20 11:43:00,,0830.1,5.01,0.00,30.2,28.7,00.0,39.1,32.1,26.7,0000.0,0012.36,0006.54,0005.53
2022-08-20 11:44:00,,0830.1,5.00,0.00,30.2,28.8,00.0,39.1,32.0,26.4,0000.0,0013.21,0006.61,0005.55
2022-08-20 11:45:00,,0830.0,4.99,0.00,30.2,28.9,00.0,39.1,32.1,26.1,0000.0,0013.86,0006.73,0005.60
2022-08-20 11:46:00,,0830.1,5.00,0.00,30.2,28.9,00.0,39.1,32.1,25.9,0000.0,0013.79,0006.73,0005.65
2022-08-20 11:47:00,,0830.1,5.00,0.00,30.3,29.0,00.0,39.1,32.1,25.8,0000.0,0014.08,0006.82,0005.68
2022-08-20 11:48:00,,0830.1,5.00,0.00,30.3,29.0,00.0,39.1,32.1,26.5,0000.0,0014.13,0006.85,0005.72
2022-08-20 11:49:00,,0830.1,5.00,0.00,30.3,29.1,00.0,39.1,32.1,27.1,0000.0,0014.34,0006.93,0005.76
2022-08-20 11:50:00,,0830.1,5.00,0.00,30.3,29.1,00.0,39.1,32.1,27.4,0000.0,0014.78,0006.99,0005.79
2022-08-20 11:51:00,,0830.1,5.00,0.00,30.3,29.1,00.0,39.1,32.1,26.7,0000.0,0015.09,0007.01,0005.82
2022-08-20 11:52:00,,0830.1,5.00,0.00,30.3,29.2,00.0,39.1,32.2,26.2,0000.0,0015.27,0007.03,0005.85
2022-08-20 11:53:00,,0830.1,5.00,0.00,30.3,29.2,00.0,39.1,32.2,26.1,0000.0,0015.16,0007.07,0005.89
2022-08-20 11:54:00,,0830.1,5.00,0.00,30.3,29.2,00.0,39.1,32.2,26.1,0000.0,0015.04,0007.15,0005.92
2022-08-20 11:55:00,,0830.1,5.00,0.00,30.3,29.2,00.0,39.1,32.2,26.1,0000.0,0014.15,0007.17,0005.95
2022-08-20 11:56:00,,0830.1,4.99,0.00,30.4,29.3,00.0,39.1,32.2,26.0,0000.0,0015.04,0007.14,0005.97
2022-08-20 11:57:00,,0830.1,5.00,0.00,30.4,29.3,00.0,39.1,32.3,25.7,0000.0,0015.41,0007.10,0005.98
2022-08-20 11:58:00,,0830.1,5.00,0.00,30.4,29.3,00.0,39.2,32.3,25.6,0000.0,0015.48,0007.04,0005.98
2022-08-20 11:59:00,,0830.2,5.00,0.00,30.4,29.3,00.0,39.2,32.3,25.9,0000.0,0015.50,0007.02,0005.98
